THY39L LTFM-LROP

Flight info

Callsign THY39L
Flight time 0h 46m
Altitude 32000
Route IBLAX1D/35L IBLAX P727 BGS L622 GONGO DCT KOMAN DCT OBUGA
Aircraft A343/H-SDE2E3FGHIJ4J5M1RWXY/LB1D1

Departure

Time 2026-05-05 14:56
Airport İstanbul Airport (LTFM)

Arrival

Time 2026-05-05 15:42
Airport Bucharest Henri Coandă International Airport (LROP)
Time Latitude Longitude Altitude Speed Heading
2026-05-05 14:25 41.26407 28.73575 316 ft 0 kts 71°
2026-05-05 14:45 41.26402 28.73557 316 ft 2 kts 75°
2026-05-05 14:45 41.26398 28.73536 314 ft 2 kts 79°
2026-05-05 14:45 41.26395 28.73514 315 ft 2 kts 83°
2026-05-05 14:45 41.26393 28.73493 316 ft 2 kts 91°
2026-05-05 14:46 41.26394 28.73471 315 ft 2 kts 106°
2026-05-05 14:46 41.26400 28.73450 314 ft 2 kts 131°
2026-05-05 14:46 41.26411 28.73434 313 ft 2 kts 155°
2026-05-05 14:46 41.26421 28.73429 313 ft 1 kts 161°
2026-05-05 14:47 41.26422 28.73428 313 ft 0 kts 161°
2026-05-05 14:52 41.26420 28.73429 314 ft 2 kts 161°
2026-05-05 14:52 41.26386 28.73445 316 ft 8 kts 159°
2026-05-05 14:53 41.26313 28.73480 316 ft 13 kts 162°
2026-05-05 14:53 41.26232 28.73449 315 ft 12 kts 232°
2026-05-05 14:53 41.26220 28.73331 316 ft 15 kts 267°
2026-05-05 14:53 41.26217 28.73171 315 ft 20 kts 271°
2026-05-05 14:54 41.26216 28.72969 315 ft 24 kts 269°
2026-05-05 14:54 41.26215 28.72739 317 ft 27 kts 269°
2026-05-05 14:54 41.26214 28.72573 316 ft 3 kts 268°
2026-05-05 14:54 41.26220 28.72543 317 ft 0 kts 293°
2026-05-05 14:55 41.26226 28.72537 315 ft 1 kts 316°
2026-05-05 14:55 41.26247 28.72529 317 ft 8 kts 341°
2026-05-05 14:55 41.26337 28.72519 316 ft 20 kts 359°
2026-05-05 14:55 41.26637 28.72513 314 ft 73 kts 359°
2026-05-05 14:56 41.27383 28.72503 295 ft 139 kts 359°
2026-05-05 14:56 41.28504 28.72479 596 ft 170 kts 359°
2026-05-05 14:56 41.29713 28.72453 1514 ft 176 kts 358°
2026-05-05 14:56 41.30879 28.72110 2557 ft 173 kts 334°
2026-05-05 14:57 41.31876 28.71262 3592 ft 163 kts 326°
2026-05-05 14:57 41.32864 28.70480 3957 ft 175 kts 342°
2026-05-05 14:57 41.34133 28.70119 4068 ft 198 kts 348°
2026-05-05 14:57 41.35540 28.69599 4251 ft 222 kts 341°
2026-05-05 14:58 41.37040 28.68835 4677 ft 241 kts 338°
2026-05-05 14:58 41.38644 28.67928 4913 ft 254 kts 337°
2026-05-05 14:58 41.40243 28.66960 5531 ft 252 kts 336°
2026-05-05 14:58 41.41824 28.65964 6441 ft 252 kts 336°
2026-05-05 14:59 41.43406 28.64950 7273 ft 253 kts 336°
2026-05-05 14:59 41.44997 28.63921 8090 ft 255 kts 336°
2026-05-05 14:59 41.46582 28.62891 8893 ft 258 kts 336°
2026-05-05 14:59 41.48206 28.61831 9706 ft 261 kts 336°
2026-05-05 15:00 41.49853 28.60756 10369 ft 269 kts 336°
2026-05-05 15:00 41.50992 28.60012 10575 ft 281 kts 336°
2026-05-05 15:00 41.53447 28.58412 11047 ft 304 kts 336°
2026-05-05 15:00 41.55394 28.57143 11427 ft 319 kts 336°
2026-05-05 15:01 41.57435 28.55811 11849 ft 332 kts 336°
2026-05-05 15:01 41.59549 28.54428 12289 ft 343 kts 336°
2026-05-05 15:01 41.61722 28.53003 12754 ft 353 kts 335°
2026-05-05 15:01 41.63921 28.51559 13317 ft 358 kts 335°
2026-05-05 15:02 41.66199 28.50058 13974 ft 362 kts 335°
2026-05-05 15:02 41.68439 28.48580 14550 ft 366 kts 335°
2026-05-05 15:02 41.70770 28.47042 15134 ft 370 kts 335°
2026-05-05 15:02 41.73069 28.45522 15707 ft 374 kts 335°
2026-05-05 15:03 41.75415 28.43969 16293 ft 378 kts 335°
2026-05-05 15:03 41.77794 28.42391 16882 ft 382 kts 335°
2026-05-05 15:03 41.80193 28.40797 17462 ft 387 kts 335°
2026-05-05 15:03 41.82614 28.39186 18050 ft 391 kts 335°
2026-05-05 15:04 41.85063 28.37553 18582 ft 395 kts 335°
2026-05-05 15:04 41.87534 28.35901 19086 ft 398 kts 335°
2026-05-05 15:04 41.90023 28.34232 19573 ft 402 kts 335°
2026-05-05 15:04 41.92529 28.32547 20061 ft 405 kts 335°
2026-05-05 15:05 41.97569 28.28999 20961 ft 414 kts 327°
2026-05-05 15:05 41.99668 28.26311 21445 ft 421 kts 311°
2026-05-05 15:05 42.01434 28.23136 21912 ft 426 kts 307°
2026-05-05 15:06 42.03123 28.19852 22371 ft 429 kts 306°
2026-05-05 15:06 42.04232 28.17635 22687 ft 431 kts 306°
2026-05-05 15:06 42.05894 28.14261 23143 ft 435 kts 305°
2026-05-05 15:06 42.07563 28.10845 23599 ft 438 kts 305°
2026-05-05 15:07 42.09227 28.07430 23859 ft 436 kts 305°
2026-05-05 15:07 42.10907 28.03990 23975 ft 443 kts 305°
2026-05-05 15:07 42.12613 28.00506 24023 ft 445 kts 305°
2026-05-05 15:07 42.14876 27.95899 24049 ft 444 kts 305°
2026-05-05 15:08 42.16025 27.93564 24066 ft 443 kts 305°
2026-05-05 15:08 42.17733 27.90100 24062 ft 442 kts 306°
2026-05-05 15:08 42.19414 27.86695 24061 ft 442 kts 306°
2026-05-05 15:08 42.21194 27.83321 24048 ft 440 kts 312°
2026-05-05 15:09 42.23489 27.80647 24062 ft 436 kts 326°
2026-05-05 15:09 42.26017 27.78406 24054 ft 434 kts 329°
2026-05-05 15:09 42.28600 27.76297 24062 ft 433 kts 331°
2026-05-05 15:09 42.31210 27.74259 24059 ft 433 kts 332°
2026-05-05 15:10 42.33842 27.72260 24063 ft 433 kts 332°
2026-05-05 15:10 42.36479 27.70292 24066 ft 432 kts 333°
2026-05-05 15:10 42.39120 27.68336 24066 ft 432 kts 333°
2026-05-05 15:10 42.41732 27.66410 24065 ft 432 kts 333°
2026-05-05 15:11 42.44368 27.64469 24072 ft 432 kts 333°
2026-05-05 15:11 42.47007 27.62524 24077 ft 432 kts 333°
2026-05-05 15:11 42.49642 27.60578 24072 ft 432 kts 333°
2026-05-05 15:11 42.52279 27.58626 24070 ft 431 kts 333°
2026-05-05 15:12 42.54911 27.56669 24071 ft 431 kts 333°
2026-05-05 15:12 42.57482 27.54570 24070 ft 431 kts 329°
2026-05-05 15:12 42.59989 27.52325 24070 ft 432 kts 328°
2026-05-05 15:12 42.62476 27.50012 24070 ft 432 kts 327°
2026-05-05 15:13 42.64948 27.47663 24072 ft 433 kts 327°
2026-05-05 15:13 42.67405 27.45298 24069 ft 433 kts 327°
2026-05-05 15:13 42.69855 27.42921 24071 ft 433 kts 327°
2026-05-05 15:13 42.72304 27.40531 24066 ft 433 kts 326°
2026-05-05 15:14 42.74749 27.38133 24058 ft 433 kts 326°
2026-05-05 15:14 42.77186 27.35736 24059 ft 433 kts 326°
2026-05-05 15:14 42.79627 27.33328 24056 ft 433 kts 326°
2026-05-05 15:14 42.82072 27.30916 24042 ft 433 kts 326°
2026-05-05 15:15 42.84482 27.28533 24036 ft 433 kts 326°
2026-05-05 15:15 42.86922 27.26117 24028 ft 433 kts 326°
2026-05-05 15:15 42.89366 27.23693 24024 ft 434 kts 326°
2026-05-05 15:15 42.91807 27.21269 24027 ft 434 kts 326°
2026-05-05 15:16 42.94246 27.18840 24022 ft 433 kts 326°
2026-05-05 15:16 42.96679 27.16414 24021 ft 433 kts 326°
2026-05-05 15:16 42.99115 27.13985 24018 ft 433 kts 326°
2026-05-05 15:16 43.01545 27.11556 24018 ft 433 kts 326°
2026-05-05 15:17 43.03949 27.09152 24012 ft 433 kts 326°
2026-05-05 15:17 43.06380 27.06717 24007 ft 433 kts 326°
2026-05-05 15:17 43.08839 27.04339 24007 ft 433 kts 327°
2026-05-05 15:17 43.11324 27.02015 24002 ft 433 kts 328°
2026-05-05 15:18 43.13825 26.99713 24006 ft 433 kts 328°
2026-05-05 15:18 43.16334 26.97419 24005 ft 433 kts 328°
2026-05-05 15:18 43.18843 26.95134 24001 ft 433 kts 328°
2026-05-05 15:18 43.21354 26.92850 23997 ft 433 kts 328°
2026-05-05 15:19 43.23863 26.90568 23997 ft 433 kts 328°
2026-05-05 15:19 43.26377 26.88280 23998 ft 434 kts 328°
2026-05-05 15:19 43.28894 26.85989 23997 ft 434 kts 328°
2026-05-05 15:19 43.31378 26.83723 23998 ft 435 kts 328°
2026-05-05 15:20 43.33934 26.81389 24002 ft 435 kts 328°
2026-05-05 15:20 43.36384 26.79150 23999 ft 435 kts 328°
2026-05-05 15:20 43.38059 26.77617 24000 ft 435 kts 328°
2026-05-05 15:20 43.39720 26.76096 23998 ft 435 kts 328°
2026-05-05 15:21 43.42246 26.73781 23997 ft 436 kts 328°
2026-05-05 15:21 43.44771 26.71463 23993 ft 436 kts 328°
2026-05-05 15:21 43.47297 26.69140 23997 ft 436 kts 328°
2026-05-05 15:21 43.49820 26.66819 24013 ft 435 kts 328°
2026-05-05 15:22 43.52307 26.64527 23938 ft 433 kts 328°
2026-05-05 15:22 43.54654 26.62361 23592 ft 432 kts 328°
2026-05-05 15:22 43.57148 26.60058 23056 ft 430 kts 328°
2026-05-05 15:22 43.59608 26.57784 22428 ft 424 kts 328°
2026-05-05 15:23 43.62053 26.55519 21660 ft 420 kts 328°
2026-05-05 15:23 43.64472 26.53275 20949 ft 416 kts 328°
2026-05-05 15:23 43.66861 26.51058 20248 ft 412 kts 328°
2026-05-05 15:23 43.69230 26.48857 19573 ft 408 kts 328°
2026-05-05 15:24 43.71549 26.46701 18944 ft 405 kts 328°
2026-05-05 15:24 43.73875 26.44538 18312 ft 402 kts 328°
2026-05-05 15:24 43.76189 26.42386 17651 ft 398 kts 329°
2026-05-05 15:24 43.78481 26.40254 17157 ft 395 kts 328°
2026-05-05 15:25 43.80747 26.38144 16575 ft 391 kts 328°
2026-05-05 15:25 43.82997 26.36044 15813 ft 391 kts 329°
2026-05-05 15:25 43.85241 26.33944 15364 ft 384 kts 328°
2026-05-05 15:25 43.87443 26.31882 14791 ft 380 kts 329°
2026-05-05 15:26 43.89623 26.29840 14242 ft 377 kts 329°
2026-05-05 15:26 43.91784 26.27815 13694 ft 373 kts 329°
2026-05-05 15:26 43.93931 26.25803 13087 ft 370 kts 329°
2026-05-05 15:26 43.96058 26.23804 12507 ft 367 kts 328°
2026-05-05 15:27 43.98153 26.21815 11934 ft 363 kts 328°
2026-05-05 15:27 44.00239 26.19822 11450 ft 367 kts 328°
2026-05-05 15:27 44.02342 26.17799 11202 ft 366 kts 328°
2026-05-05 15:27 44.04411 26.15791 11029 ft 358 kts 327°
2026-05-05 15:28 44.06444 26.13807 10514 ft 355 kts 327°
2026-05-05 15:28 44.08485 26.11972 9929 ft 352 kts 335°
2026-05-05 15:28 44.10844 26.11146 9545 ft 341 kts 358°
2026-05-05 15:28 44.13069 26.11685 9494 ft 322 kts 21°
2026-05-05 15:29 44.14979 26.13148 9489 ft 305 kts 31°
2026-05-05 15:29 44.16697 26.14755 9471 ft 288 kts 33°
2026-05-05 15:29 44.18291 26.16343 9406 ft 274 kts 34°
2026-05-05 15:29 44.19799 26.17893 9118 ft 268 kts 35°
2026-05-05 15:30 44.20833 26.18964 8837 ft 267 kts 35°
2026-05-05 15:30 44.22249 26.20416 8465 ft 266 kts 34°
2026-05-05 15:30 44.23747 26.21925 8056 ft 265 kts 34°
2026-05-05 15:30 44.25249 26.23404 7678 ft 263 kts 34°
2026-05-05 15:31 44.26757 26.24874 7313 ft 268 kts 34°
2026-05-05 15:31 44.28289 26.26361 7150 ft 265 kts 34°
2026-05-05 15:31 44.29781 26.27807 7087 ft 259 kts 34°
2026-05-05 15:31 44.31264 26.29252 7056 ft 259 kts 34°
2026-05-05 15:32 44.32746 26.30697 7037 ft 261 kts 34°
2026-05-05 15:32 44.34243 26.32155 7025 ft 262 kts 34°
2026-05-05 15:32 44.35735 26.33615 7019 ft 262 kts 34°
2026-05-05 15:32 44.37208 26.35055 7012 ft 261 kts 34°
2026-05-05 15:33 44.38678 26.36497 7011 ft 251 kts 34°
2026-05-05 15:33 44.40061 26.37854 6934 ft 237 kts 34°
2026-05-05 15:33 44.41379 26.39146 6865 ft 223 kts 34°
2026-05-05 15:33 44.42631 26.40373 6498 ft 219 kts 34°
2026-05-05 15:34 44.43872 26.41582 6294 ft 216 kts 34°
2026-05-05 15:34 44.45008 26.42950 6003 ft 219 kts 53°
2026-05-05 15:34 44.45625 26.44907 5705 ft 223 kts 70°
2026-05-05 15:34 44.45999 26.47022 5453 ft 224 kts 75°
2026-05-05 15:35 44.46271 26.49172 5208 ft 225 kts 79°
2026-05-05 15:35 44.46469 26.51345 4956 ft 225 kts 80°
2026-05-05 15:35 44.46981 26.53378 4661 ft 221 kts 51°
2026-05-05 15:35 44.48183 26.54595 4373 ft 218 kts 15°
2026-05-05 15:36 44.49688 26.54635 4087 ft 219 kts 350°
2026-05-05 15:36 44.51155 26.54045 3820 ft 220 kts 330°
2026-05-05 15:36 44.52221 26.52537 3571 ft 220 kts 302°
2026-05-05 15:36 44.52977 26.50658 3333 ft 221 kts 298°
2026-05-05 15:37 44.53709 26.48763 3091 ft 221 kts 297°
2026-05-05 15:37 44.54430 26.46855 2852 ft 222 kts 297°
2026-05-05 15:37 44.55143 26.44926 2669 ft 227 kts 296°
2026-05-05 15:37 44.55859 26.42958 2571 ft 225 kts 296°
2026-05-05 15:38 44.56564 26.41018 2526 ft 221 kts 296°
2026-05-05 15:38 44.57259 26.39101 2517 ft 220 kts 296°
2026-05-05 15:38 44.57967 26.37135 2511 ft 245 kts 296°
2026-05-05 15:38 44.58720 26.34846 2499 ft 264 kts 287°
2026-05-05 15:39 44.58877 26.32279 2499 ft 261 kts 266°
2026-05-05 15:39 44.58842 26.29838 2490 ft 245 kts 269°
2026-05-05 15:39 44.58860 26.27469 2235 ft 242 kts 268°
2026-05-05 15:39 44.58762 26.25159 1947 ft 229 kts 266°
2026-05-05 15:40 44.58722 26.23016 1642 ft 209 kts 267°
2026-05-05 15:40 44.58636 26.21066 1295 ft 193 kts 263°
2026-05-05 15:40 44.58497 26.19254 950 ft 178 kts 262°
2026-05-05 15:40 44.58363 26.17593 820 ft 170 kts 263°
2026-05-05 15:41 44.58247 26.15944 645 ft 167 kts 262°
2026-05-05 15:41 44.58114 26.14305 526 ft 171 kts 263°
2026-05-05 15:41 44.57988 26.12707 378 ft 159 kts 263°
2026-05-05 15:41 44.57874 26.11258 324 ft 139 kts 263°
2026-05-05 15:42 44.57792 26.10084 326 ft 91 kts 264°
2026-05-05 15:42 44.57730 26.09304 321 ft 60 kts 263°
2026-05-05 15:42 44.57689 26.08802 324 ft 43 kts 264°
2026-05-05 15:42 44.57647 26.08478 326 ft 23 kts 229°
2026-05-05 15:43 44.57551 26.08451 327 ft 14 kts 174°
2026-05-05 15:43 44.57517 26.08456 329 ft 0 kts 175°
2026-05-05 15:43 44.57515 26.08456 329 ft 3 kts 175°
2026-05-05 15:44 44.57472 26.08462 326 ft 9 kts 174°
2026-05-05 15:44 44.57394 26.08474 326 ft 13 kts 173°
2026-05-05 15:44 44.57288 26.08491 329 ft 17 kts 174°
2026-05-05 15:44 44.57227 26.08449 326 ft 6 kts 250°
2026-05-05 15:45 44.57216 26.08388 327 ft 7 kts 245°
2026-05-05 15:45 44.57199 26.08370 326 ft 5 kts 210°
2026-05-05 15:45 44.57147 26.08368 328 ft 11 kts 169°
2026-05-05 15:45 44.57034 26.08387 326 ft 18 kts 173°
2026-05-05 15:46 44.56970 26.08385 328 ft 1 kts 214°
2026-05-05 15:46 44.56974 26.08369 326 ft 2 kts 284°
2026-05-05 15:46 44.57000 26.08319 327 ft 12 kts 308°
2026-05-05 15:46 44.57030 26.08266 326 ft 0 kts 308°
2026-05-05 15:47 44.57031 26.08264 326 ft 0 kts 308°
2026-05-05 15:48 44.57024 26.08277 327 ft 0 kts 308°